Location: Beccas
(43.4309°N, 0.1528°E)
Time: 21:39:29
(UTC+00:00)

DMSP B5D2-2 - Pass Details

Date: 15 October 2021
Orbit: 789 x 806 km, 98.3° (Epoch: 29 November)

Event Time Altitude Azimuth Distance (km) Brightness Sun altitude
Rises 18:30:13 0° 18° (NNE) 3,323 7.1 -14.2°
Reaches altitude 10° 18:32:39 10° 24° (NNE) 2,386 6.3 -14.7°
Maximum altitude 18:37:45 48° 99° (E) 1,035 4.2 -15.6°
Drops below altitude 10° 18:42:47 10° 173° (S) 2,358 6.4 -16.5°
Sets 18:45:10 0° 179° (S) 3,280 7.2 -16.9°
